Flag for Germany Weather past 2 weeks in Fürth, Bavaria, Germany

Now
64 °F

Passing clouds.


Feels Like: 64 °F
Forecast: 47 / 65 °F
Wind: 9 mph from West

Location: Nuernberg

Current Time: Sep 4, 2015 at 6:41:37 PM

Latest Report: Sep 4, 2015 at 6:20 PM


Visibility: N/A

Pressure: 29.95 "Hg

Humidity: 43%

Dew point: 41 °F

Location of FürthLocation

Historic Weather in Fürth — Graph

°F

Fürth temperature yesterday

Maximum temperature yesterday: 64 °F (at 3:50 PM)
Minimum temperature yesterday: 54 °F (at 1:50 AM)
Average temperature yesterday: 58 °F

Past Weeks' High & Low Weather Summary

 TemperatureHumidityPressure
High93 °F (Aug 30, 3:50 PM)100% (Aug 21, 2:50 AM)30.27 "Hg (Aug 21, 2:50 AM)
Low46 °F (Aug 22, 5:50 AM)26% (Aug 26, 3:20 PM)29.71 "Hg (Aug 24, 3:20 PM)
Average67 °F66%30.02 "Hg
* Reported Aug 20 5:20 PM — Sep 4 5:20 PM, Fürth, Weather by CustomWeather, © 2015

Note: Actual official high and low records may vary slightly from our data, if they occured in-between our weather recording intervals... More about our weather records

Advertising

Fürth weather history for previous 24 hours

 ConditionsComfort  
Time TempWeatherWind HumidityBarometerVisibility
5:20 PM
Fri, Sep 4
66 °FPassing clouds.12 mph43%29.98 "HgN/A
4:50 PM66 °FPassing clouds.13 mph43%29.98 "HgN/A
4:20 PM68 °FPassing clouds.13 mph40%29.98 "HgN/A
3:50 PM64 °FPassing clouds.9 mph40%29.98 "HgN/A
3:20 PM66 °FScattered clouds.9 mph37%29.98 "HgN/A
2:50 PM66 °FScattered clouds.8 mph40%30.01 "HgN/A
2:20 PM64 °FPartly sunny.10 mph43%30.01 "HgN/A
1:50 PM64 °FScattered clouds.8 mph46%30.01 "HgN/A
1:20 PM64 °FScattered clouds.5 mph46%30.01 "HgN/A
12:50 PM63 °FScattered clouds.5 mph49%30.01 "HgN/A
12:20 PM63 °FScattered clouds.3 mph56%30.01 "HgN/A
11:50 AM61 °FScattered clouds.5 mph59%30.01 "HgN/A
11:20 AM61 °FScattered clouds.5 mph63%30.04 "HgN/A
10:50 AM59 °FScattered clouds.5 mph63%30.04 "HgN/A
10:20 AM57 °FScattered clouds.5 mph72%30.04 "HgN/A
9:50 AM55 °FSunny.5 mph72%30.01 "Hg10 mi
9:20 AM55 °FPassing clouds.3 mph77%30.01 "HgN/A
8:50 AM52 °FSunny.5 mph94%30.01 "Hg10 mi
8:20 AM52 °FSunny.3 mph88%30.01 "Hg10 mi
7:50 AM48 °FSunny.3 mph94%30.01 "Hg10 mi
7:20 AM48 °FFog.1 mph87%30.01 "HgN/A
6:50 AM48 °FFog.2 mph94%29.98 "HgN/A
6:20 AM48 °FFog.1 mph94%29.98 "HgN/A
5:50 AM48 °FFog.1 mph94%29.98 "HgN/A
5:20 AM50 °FFog.2 mph88%29.98 "Hg4 mi
4:50 AM50 °FFog.1 mph94%29.98 "Hg4 mi
4:20 AM48 °FFog.2 mph94%29.98 "Hg2 mi
3:50 AM50 °FFog.1 mph94%29.98 "HgN/A
3:20 AM54 °FFog.2 mph88%29.98 "HgN/A
2:50 AM52 °FCool.2 mph94%29.98 "Hg3 mi
2:20 AM52 °FFog.2 mph94%29.98 "Hg3 mi
1:50 AM54 °FClear.3 mph94%29.98 "Hg4 mi
1:20 AM54 °FFog.2 mph94%29.98 "Hg1 mi
12:50 AM54 °FFog.1 mph94%29.98 "Hg2 mi
12:20 AM52 °FFog.3 mph100%29.98 "Hg1 mi
11:20 PM
Thu, Sep 3
55 °FClear.3 mph94%29.98 "Hg5 mi
10:50 PM55 °FClear.5 mph94%29.98 "Hg5 mi
10:20 PM55 °FFog.3 mph94%29.98 "HgN/A
9:50 PM55 °FFog.3 mph94%29.95 "HgN/A
9:20 PM57 °FClear.3 mph94%29.95 "Hg10 mi
8:50 PM57 °FPassing clouds.2 mph94%29.95 "HgN/A
8:20 PM59 °FScattered clouds.2 mph88%29.95 "HgN/A
7:50 PM59 °FScattered clouds.5 mph88%29.95 "HgN/A
7:20 PM61 °FBroken clouds.5 mph88%29.95 "HgN/A
6:50 PM61 °FPartly sunny.5 mph88%29.95 "HgN/A
6:20 PM63 °FSprinkles. Partly sunny.5 mph77%29.95 "HgN/A
Weather by CustomWeather, © 2015

See weather overviewHow to use our weather pages